TimeEDT,TemperatureF,Dew PointF,Humidity,Sea Level PressureIn,VisibilityMPH,Wind Direction,Wind SpeedMPH,Gust SpeedMPH,PrecipitationIn,Events,Conditions,WindDirDegrees,DateUTC
12:55 AM,38.8,37.2,94,30.16,10.0,Calm,Calm,-,N/A,,Clear,0,2012-10-09 04:55:00
1:55 AM,38.3,37.0,95,30.16,10.0,Calm,Calm,-,N/A,,Clear,0,2012-10-09 05:55:00
2:55 AM,39.4,36.9,91,30.16,10.0,East,3.5,-,N/A,,Clear,100,2012-10-09 06:55:00
3:55 AM,38.5,36.9,94,30.15,10.0,Calm,Calm,-,N/A,,Clear,0,2012-10-09 07:55:00
4:55 AM,36.3,35.2,96,30.15,9.0,Calm,Calm,-,N/A,,Clear,0,2012-10-09 08:55:00
5:55 AM,36.1,35.4,97,30.15,5.0,Calm,Calm,-,N/A,,Clear,0,2012-10-09 09:55:00
6:55 AM,35.8,35.1,97,30.16,5.0,Calm,Calm,-,N/A,,Clear,0,2012-10-09 10:55:00
7:55 AM,36.1,35.4,97,30.17,7.0,East,2.3,-,N/A,,Clear,100,2012-10-09 11:55:00
8:55 AM,39.2,38.5,97,30.17,10.0,SE,2.3,-,N/A,,Clear,130,2012-10-09 12:55:00
9:55 AM,48.0,43.7,85,30.18,10.0,South,4.6,-,N/A,,Partly Cloudy,190,2012-10-09 13:55:00
10:55 AM,54.3,43.7,67,30.17,10.0,South,8.1,-,N/A,,Partly Cloudy,190,2012-10-09 14:55:00
11:55 AM,58.5,42.3,55,30.16,10.0,SSW,10.4,-,N/A,,Partly Cloudy,210,2012-10-09 15:55:00
12:55 PM,59.7,39.9,48,30.13,10.0,South,6.9,-,N/A,,Partly Cloudy,170,2012-10-09 16:55:00
1:55 PM,62.4,39.9,44,30.09,10.0,SSW,8.1,-,N/A,,Partly Cloudy,210,2012-10-09 17:55:00
2:55 PM,63.0,40.1,43,30.06,10.0,SSE,11.5,-,0.00,,Clear,150,2012-10-09 18:55:00
3:55 PM,63.5,39.9,42,30.04,10.0,SSW,6.9,-,N/A,,Clear,210,2012-10-09 19:55:00
4:55 PM,63.3,40.6,43,30.02,10.0,SSE,10.4,-,N/A,,Clear,160,2012-10-09 20:55:00
5:55 PM,62.4,41.5,46,30.01,10.0,Variable,5.8,-,N/A,,Clear,0,2012-10-09 21:55:00
6:55 PM,58.5,42.1,55,30.01,10.0,South,8.1,-,N/A,,Clear,190,2012-10-09 22:55:00
7:55 PM,53.2,41.0,63,30.01,10.0,SSE,4.6,-,N/A,,Clear,150,2012-10-09 23:55:00
8:55 PM,50.7,41.9,72,30.01,10.0,SSE,3.5,-,N/A,,Clear,160,2012-10-10 00:55:00
9:55 PM,50.7,41.2,70,30.00,10.0,SSE,5.8,-,N/A,,Clear,160,2012-10-10 01:55:00
10:55 PM,48.6,41.5,77,30.00,10.0,South,5.8,-,N/A,,Clear,190,2012-10-10 02:55:00
11:55 PM,46.6,41.7,83,30.00,10.0,South,4.6,-,N/A,,Clear,190,2012-10-10 03:55:00